Mount Holly, NJ

11:35 AM EDT on October 19, 2019 (GMT -0400)
South Jersey Regional

Weather History for KVAY - August, 2019

Change the Weather History Date:

Friday, August 30, 2019

  Actual Average (KPNE) Record (KPNE)
Temperature  
Mean Temperature 72 °F -  
Max Temperature 87 °F 79 °F 93 °F (2010)
Min Temperature 57 °F 62 °F 57 °F (1999)
Cooling Degree Days 7    
Growing Degree Days 22 (Base 50)    
Moisture  
Dew Point 59 °F    
Average Humidity 66    
Maximum Humidity 93    
Minimum Humidity 39    
Precipitation  
Precipitation 0.00 in - - ()
Sea Level Pressure  
Sea Level Pressure 30.03 in    
Wind  
Wind Speed 3 mph (SW)    
Max Wind Speed 12 mph    
Max Gust Speed 18 mph    
Visibility 10 miles    
Events      
Averages and records for this station are not official NWS values.
T = Trace of Precipitation, MM = Missing Value Source: NWS Daily Summary

Daily Weather History Graph

Daily Weather History Graph

Search for Another Location

Airport or City:

Astronomy

Aug. 30, 2019 Rise Set
Actual Time 6:25 AM EDT 7:34 PM EDT
Civil Twilight 5:57 AM EDT 8:02 PM EDT
Nautical Twilight 5:23 AM EDT 8:35 PM EDT
Astronomical Twilight 4:49 AM EDT 9:10 PM EDT
Moon 6:22 AM EDT (8/30) 8:09 PM EDT (8/30)
Length of Visible Light 14h 04m
Length of Day
13h 09m
New Moon, 0% of the Moon is Illuminated
Aug 30
New Moon
Sep 5
First Quarter
Sep 14
Full
Sep 21
Last Quarter
Sep 28
New

Hourly Weather History & Observations

Time (EDT) Temp. Heat Index Dew Point Humidity Pressure Visibility Wind Dir Wind Speed Gust Speed Precip Events Conditions
12:54 AM 59.0 °F - 55.9 °F 90% 30.02 in 10.0 mi Calm Calm - N/A   Clear
1:54 AM 59.0 °F - 55.9 °F 90% 30.01 in 10.0 mi Calm Calm - N/A   Clear
2:54 AM 59.0 °F - 55.9 °F 90% 30.02 in 10.0 mi Calm Calm - N/A   Clear
3:54 AM 59.0 °F - 55.9 °F 90% 30.02 in 10.0 mi Calm Calm - N/A   Clear
4:54 AM 57.9 °F - 55.0 °F 90% 30.03 in 10.0 mi Calm Calm - N/A   Clear
5:54 AM 59.0 °F - 57.0 °F 93% 30.03 in 10.0 mi Calm Calm - N/A   Clear
6:54 AM 60.1 °F - 57.0 °F 90% 30.04 in 10.0 mi Calm Calm - N/A   Clear
7:54 AM 66.0 °F - 60.1 °F 81% 30.05 in 10.0 mi SSW 3.5 mph - N/A   Clear
8:54 AM 73.0 °F - 61.0 °F 66% 30.06 in 10.0 mi WSW 4.6 mph - N/A   Clear
9:54 AM 77.0 °F - 63.0 °F 62% 30.06 in 10.0 mi Variable 4.6 mph - N/A   Clear
10:54 AM 80.1 °F 80.6 °F 57.9 °F 47% 30.06 in 10.0 mi West 9.2 mph - N/A   Clear
11:54 AM 82.9 °F 83.2 °F 60.1 °F 46% 30.05 in 10.0 mi SW 10.4 mph - N/A   Clear
12:54 PM 84.0 °F 83.5 °F 57.9 °F 41% 30.03 in 10.0 mi SW 8.1 mph 18.4 mph N/A   Clear
1:54 PM 84.9 °F 84.4 °F 59.0 °F 41% 30.02 in 10.0 mi WSW 8.1 mph - N/A   Clear
2:54 PM 87.1 °F 86.7 °F 60.1 °F 40% 30.00 in 10.0 mi Variable 5.8 mph - N/A   Clear
3:54 PM 86.0 °F 85.4 °F 59.0 °F 40% 29.99 in 10.0 mi SW 10.4 mph - N/A   Clear
4:54 PM 87.1 °F 86.5 °F 59.0 °F 39% 30.00 in 10.0 mi SW 11.5 mph 17.3 mph N/A   Clear
5:54 PM 86.0 °F 85.4 °F 59.0 °F 40% 30.01 in 10.0 mi SW 5.8 mph - N/A   Clear
6:54 PM 84.0 °F 84.0 °F 60.1 °F 44% 30.01 in 10.0 mi SW 4.6 mph - N/A   Mostly Cloudy
7:54 PM 78.1 °F - 61.0 °F 56% 30.03 in 10.0 mi Calm Calm - N/A   Clear
8:54 PM 73.0 °F - 62.1 °F 68% 30.05 in 10.0 mi Calm Calm - N/A   Clear
9:54 PM 72.0 °F - 62.1 °F 71% 30.07 in 10.0 mi Calm Calm - N/A   Clear
10:54 PM 69.1 °F - 62.1 °F 78% 30.08 in 10.0 mi Calm Calm - N/A   Clear
11:54 PM 66.9 °F - 62.1 °F 84% 30.09 in 10.0 mi Calm Calm - N/A   Clear